User: anonymous   Login
Location: NJAA Observatory
(40.6819°N, 74.8979°W)
Time: 08:56:28
(UTC-05:00)
Language:

Cosmos 220 Rocket - Orbit

View from above orbital plane
View from above orbital plane
View from above satellite
View from above satellite

Ground track
Ground track

The orbit data is extracted from the following two-line orbital elements,

1 03230U 68040B   17019.52652752  .00000200  00000-0  24642-4 0  9992
2 03230  74.0348 180.6849 0030418 174.5653 185.5866 14.90053364613373
Epoch (UTC): 19 January 2017 12:38:11
Eccentricity: 0.0030418
inclination: 74.0348°
perigee height: 576 km
apogee height: 619 km
right ascension of ascending node: 180.6849°
argument of perigee: 174.5653°
revolutions per day: 14.90053364
mean anomaly at epoch: 185.5866°
orbit number at epoch: 61337

The dashed part of the orbit path shows where the satellite is in the earth's shadow,  

DLR